Погода в Гудермесе

Погода в Гудермесе : погода сейчас, прогноз погоды и архив. Всё, что Вы хотите узнать о погоде в Гудермесе!

Поиск расширенной информации на нашем сайте:

Другие новости

Новости СМИ2

Главная страница сайта

Новости сайта

02.10.2013

Напоминаем, что на нашем новом сайте вы можете получить высокодетализированные прогнозы погоды по пунктам России, СНГ и мира (включающие важные для авиации метеовеличины, такие как направление и скорость ветра, видимость, явления погоды, количество и форма облачности, нижняя и верхняя граница облачности), а также ознакомиться с разнообразными материалами по авиационной метеорологии и подборкой полезных ссылок на эту тему.

Сайт Метеоцентр.Азия посвящён разработке технологий оптимизации авиаметеорологического обслуживания, включая проектирование и перспективное создание нескольких автоматизированных авиаметеорологических систем:
- система выпуска высокодетальных прогностических карт явлений погоды для нижнего воздушного пространства по России и ближнему зарубежью;
- система верификации прогнозов TAF (выпускаемых синоптиками официальных АМСГ РФ и ближнего зарубежья) и AUTOTAF (выпускаемых сайтом Метеоцентр.Азия) - выявление ошибок, онлайн-сопоставление с фактической погодой METAR, автоматическое внесение коррективов в прогнозы при резком отклонении фактической погоды от прогноза, подсчёт оправдываемости прогнозов по элементам и в целом;
- система обработки, анализа и отображения авиаметеорологической информации для применения провайдерами метеорологической информации.


Погода в Гудермесе - сегодня

Время (UTC), дата Ветер
(°,м/с) 
Видим.   Явления Облачность Т
(°С)
Тd
(°С)
f(%) Тe
(°С)
Pmin
(гПа)
dP
(гПа)
Po
(мм)
O2
(г/м3)
Тmin Tmax R s Состояние
почвы
03 20.04.17 240 (ЮЗ) 20000 м    10/10 1000 м 
[Sc]
+9.6 +2.9 63 +11  1022.8  1.4  760  295  +9.5        сухая 
06 20.04.17 260 (З) 20000 м    9/9 1000 м 
[Sc]
+11 +2.9 57 +11  1022.7  760  294           
09 20.04.17 040 (СВ) 20000 м    4/4 1000 м 
[Cu hum]
+13.3 +4.2 54 +15  1020.9  -1.6  759  291           
12 20.04.17 060 (СВ) 20000 м    ясно 
+16.6 +4.2 44 +17  1019  -1.8  758  287           
15 20.04.17 070 (В) 20000 м    5/0 верхняя 
[Ci fib]
+15.3 +3.8 46 +15  1018.3  -0.7  757  288    +17       
18 20.04.17 090 (В) 10 км    ясно 
+10.8 +4.7 66 +12  1018.8  0.4  757  293           
21 20.04.17 090 (В) 10 км    ясно 
+6.6 +4.3 85 +6  1018.2  -0.8  757  297           
00 21.04.17 090 (В) 10 км    ясно 
+4.7 +3.7 93 +6  1016.2  -2.1  755  299           
03 21.04.17 110 (В) 20000 м    ясно 
+4.4 +3.2 92 +5  1015.6  -0.6  755  299  +3.8        сухая 
06 21.04.17 100 (В) 20000 м    8/0 средняя, верхняя 
[Ac lent|Ci]
+9.8 +5.3 74 +9  1013.8  -1.6  753  292           
09 21.04.17 060 (СВ) 20000 м    9/0 средняя 
[Ac As]
+16.3 +6.3 52 +16  1010.5  -3  751  285           
12 21.04.17 070 (В) 20000 м    9/6 1000 м средняя 
[Sc|Ac lent]
+16.4 +8.3 59 +17  1009.4  -1.1  750  284           
15 21.04.17 070 (В) 20000 м    ясно 
+14.2 +7.8 65 +15  1008.8  -0.7  750  286    +17.3       
18 21.04.17 060 (СВ) 10 км    ясно 
+9.2 +7.1 87 +10  1010  1.1  751  291           
21 21.04.17 250 (З) 10 км    10/10 600 м 
[St]
+10.8 +7.7 81 +10  1010.2  0.2  751  290           
00 22.04.17 270 (З) 5{12}  10 км    10/10 600 м 
[St]
+10 +6.1 77 +9  1013.3  753  292           
03 22.04.17 300 (СЗ) 4000 м  слаб. ливневой дождь  10/10 300 м кучево-дожд. 
[Cb cap]
+6.1 +4.7 91 +6  1017.1  3.6  756  297  +6.1      влажная 
06 22.04.17 230 (ЮЗ) 10 км  {ливн. осадки}  10/10 600 м кучево-дожд. 
[Cb cap]
+7.1 +4.6 84 +8  1016.1  -0.9  755  296  +6.1         
09 22.04.17 050 (СВ) 20000 м    10/10 1000 м 
[Sc]
+9.6 +3.8 67 +10  1017.4  1.5  756  294           
12 22.04.17 080 (В) 20000 м    5/5 1000 м 
[Sc]
+11.9 +5.1 63 +12  1016.3  -1.1  755  291           
15 22.04.17 110 (В) 20000 м    3/0 средняя 
[Ac lent]
+13 +5.7 61 +14  1019.4  3.1  758  291    +13.7  0.5     
18 22.04.17 020 (С) 10 км    8/8 600 м 
[Sc]
+10.3 +4.6 68 +10  1021.1  1.6  759  294           
21 22.04.17 100 (В) 10 км    ясно 
+7.6 +2.9 72 +8  1020.9  -0.3  759  297           
00 23.04.17 060 (СВ) 10 км    9/0 средняя 
[Ac lent]
+6.1 +3.2 82 +7  1019.1  -1.8  757  298           
03 23.04.17 050 (СВ) 4000 м  дымка  10/10 200 м 
[St]
+5.4 +3.9 90 +6  1016.2  -2.9  755  298  +4.9        влажная 
Время (UTC), дата Ветер
(°,м/с) 
Видим.   Явления Облачность Т
(°С)
Тd
(°С)
f(%) Тe
(°С)
Pmin
(гПа)
dP
(гПа)
Po
(мм)
O2
(г/м3)
Тmin Tmax R s Состояние
почвы

Для получения пояснительной информации подведите курсор к названию столбца.

ПОГОДА в Гудермесе - архив

Всё, что Вы хотите узнать о погоде в Гудермесе - удобно и подробно!

Выберите нужную дату (начиная с 1 января 2015* года) и нажмите кнопку "Найти".
Будут отображены архивные сводки погоды по пункту Гудермес, начиная с указанной даты.


Отображать данные в формате CSV (для использования в таблицах Excel)


Внимание! Наш архив погоды предназначен исключительно для личного некоммерческого использования в познавательных целях. Если Вам необходимы официальные справки о состоянии погоды (для производственных, юридических, коммерческих и т.п. целей), обращайтесь в органы Росгидромета.

*Примечание: данная дата относится к архиву по метеостанциям СССР (Россия, СНГ, Балтия).
Архив по метеостанциям Зарубежной Европы и Азии (кроме Китая) хранится 10 дней, по другим регионам земного шара (Китай, Африка, Америка, Австралия, Океания) - 1 день.

Гудермес - район местоположения метеостанции


Название, широта, долгота, высота метеостанции:
Гудермес 43.3°ш. 46.1°д. 75 м над ур. моря [Российская Федерация]

Дополнительная информация

В oтличие oт бoльшинства пoгoдных сайтoв мы публикуем пoдрoбную метеoинфoрмацию в детальнoм прoфессиoнальнoм фoрмате.

Характеристики температуры и влажнoсти вoздуха измеряются на высoте 2 м в тени вдали oт зданий и деревьев.
Скoрoсть ветра измеряется на высoте 10 м (на урoвне рoста челoвека скoрoсть ветра ниже в 1.5-2 раза). Если метеoстанция нахoдится в гoрoде или в лесу, тo скoрoсть ветра занижена на 2-4 м/с пo сравнению с oткрытым местoм. Скoрoсть ветра над акватoриями крупных рек и oзёр, а также на вершинах хoлмoв на 2-5 м/с выше, чем в oбычных услoвиях.
Атмoсфернoе давление в разных тoчках местнoсти мoжет значительнo oтличаться oт давления на метеoстанции, в зависимoсти oт услoвий рельефа (при пoдъёме на 10 м давление пoнижается примернo на 1 мм рт.ст.).